Time,TemperatureF,DewpointF,PressureIn,WindDirection,WindDirectionDegrees,WindSpeedMPH,WindSpeedGustMPH,Humidity,HourlyPrecipIn,Conditions,Clouds,dailyrainin,SolarRadiationWatts/m^2,SoftwareType,DateUTC
2013-01-22 00:00:00,16.4,8.0,30.17,North,354,8.0,11.0,69,0.00,,---,0.00,0.00,VWS V14.01,2013-01-22 06:00:00,
2013-01-22 00:04:00,16.5,8.1,30.17,ESE,104,7.0,11.0,69,0.00,,---,0.00,0.00,VWS V14.01,2013-01-22 06:04:00,
2013-01-22 00:05:00,16.5,8.1,30.17,South,174,11.0,11.0,69,0.00,,---,0.00,0.00,VWS V14.01,2013-01-22 06:05:00,
2013-01-22 00:10:00,16.9,8.5,30.17,ESE,120,7.0,11.0,69,0.00,,---,0.00,0.00,VWS V14.01,2013-01-22 06:10:00,
2013-01-22 00:15:00,16.9,7.8,30.17,SW,223,10.0,12.0,67,0.00,,---,0.00,0.00,VWS V14.01,2013-01-22 06:15:00,
2013-01-22 00:20:00,17.0,7.9,30.17,ESE,113,8.0,13.0,67,0.00,,---,0.00,0.00,VWS V14.01,2013-01-22 06:20:00,
2013-01-22 00:25:00,17.0,7.9,30.17,SSW,202,7.0,10.0,67,0.00,,---,0.00,0.00,VWS V14.01,2013-01-22 06:25:00,
2013-01-22 00:30:00,17.0,7.9,30.17,SSE,150,11.0,11.0,67,0.00,,---,0.00,0.00,VWS V14.01,2013-01-22 06:30:00,
2013-01-22 00:35:00,16.9,7.5,30.17,West,275,10.0,14.0,66,0.00,,---,0.00,0.00,VWS V14.01,2013-01-22 06:35:00,
2013-01-22 00:40:00,16.9,7.5,30.17,West,263,10.0,10.0,66,0.00,,---,0.00,0.00,VWS V14.01,2013-01-22 06:40:00,
2013-01-22 00:45:00,16.9,7.5,30.18,East,99,6.0,11.0,66,0.00,,---,0.00,0.00,VWS V14.01,2013-01-22 06:45:00,
2013-01-22 00:50:00,16.7,7.3,30.18,WNW,301,7.0,12.0,66,0.00,,---,0.00,0.00,VWS V14.01,2013-01-22 06:50:00,
2013-01-22 00:51:00,16.9,7.5,30.18,North,0,10.0,11.0,66,0.00,,---,0.00,0.00,VWS V14.01,2013-01-22 06:51:00,
2013-01-22 00:55:00,16.9,7.5,30.18,ESE,123,8.0,11.0,66,0.00,,---,0.00,0.00,VWS V14.01,2013-01-22 06:55:00,
2013-01-22 00:56:00,16.9,7.5,30.18,ESE,121,7.0,12.0,66,0.00,,---,0.00,0.00,VWS V14.01,2013-01-22 06:56:00,
2013-01-22 01:00:00,16.9,7.5,30.17,NNW,340,7.0,12.0,66,0.00,,---,0.00,0.00,VWS V14.01,2013-01-22 07:00:00,
2013-01-22 01:01:00,16.9,7.5,30.17,ESE,116,5.0,9.0,66,0.00,,---,0.00,0.00,VWS V14.01,2013-01-22 07:01:00,
2013-01-22 01:05:00,16.9,7.5,30.17,NNW,336,8.0,11.0,66,0.00,,---,0.00,0.00,VWS V14.01,2013-01-22 07:05:00,
2013-01-22 01:06:00,16.9,7.5,30.17,NW,316,11.0,12.0,66,0.00,,---,0.00,0.00,VWS V14.01,2013-01-22 07:06:00,
2013-01-22 01:10:00,16.7,7.3,30.17,SSE,151,7.0,12.0,66,0.00,,---,0.00,0.00,VWS V14.01,2013-01-22 07:10:00,
2013-01-22 01:11:00,16.7,7.3,30.17,WNW,298,3.0,9.0,66,0.00,,---,0.00,0.00,VWS V14.01,2013-01-22 07:11:00,
2013-01-22 01:15:00,16.7,7.3,30.17,WSW,248,8.0,10.0,66,0.00,,---,0.00,0.00,VWS V14.01,2013-01-22 07:15:00,
2013-01-22 01:16:00,16.7,7.3,30.17,WNW,287,6.0,9.0,66,0.00,,---,0.00,0.00,VWS V14.01,2013-01-22 07:16:00,
2013-01-22 01:20:00,16.5,7.1,30.17,North,0,7.0,10.0,66,0.00,,---,0.00,0.00,VWS V14.01,2013-01-22 07:20:00,
2013-01-22 01:21:00,16.5,7.1,30.17,West,261,6.0,10.0,66,0.00,,---,0.00,0.00,VWS V14.01,2013-01-22 07:21:00,
2013-01-22 01:25:00,16.4,7.4,30.17,ESE,110,11.0,11.0,67,0.00,,---,0.00,0.00,VWS V14.01,2013-01-22 07:25:00,
2013-01-22 01:27:00,16.2,7.2,30.17,West,260,10.0,11.0,67,0.00,,---,0.00,0.00,VWS V14.01,2013-01-22 07:27:00,
2013-01-22 01:30:00,16.1,7.1,30.16,SW,220,7.0,11.0,67,0.00,,---,0.00,0.00,VWS V14.01,2013-01-22 07:30:00,
2013-01-22 01:32:00,16.1,7.4,30.16,NW,309,7.0,8.0,68,0.00,,---,0.00,0.00,VWS V14.01,2013-01-22 07:32:00,
2013-01-22 01:35:00,15.9,7.2,30.16,WNW,289,8.0,8.0,68,0.00,,---,0.00,0.00,VWS V14.01,2013-01-22 07:35:00,
2013-01-22 01:37:00,15.9,7.2,30.16,North,0,8.0,9.0,68,0.00,,---,0.00,0.00,VWS V14.01,2013-01-22 07:37:00,
2013-01-22 01:40:00,15.9,7.2,30.16,SW,230,4.0,9.0,68,0.00,,---,0.00,0.00,VWS V14.01,2013-01-22 07:40:00,
2013-01-22 01:42:00,15.7,7.3,30.16,NE,34,5.0,9.0,69,0.00,,---,0.00,0.00,VWS V14.01,2013-01-22 07:42:00,
2013-01-22 01:45:00,15.7,7.3,30.16,NW,319,6.0,9.0,69,0.00,,---,0.00,0.00,VWS V14.01,2013-01-22 07:45:00,
2013-01-22 01:47:00,15.6,7.3,30.16,WSW,243,6.0,7.0,69,0.00,,---,0.00,0.00,VWS V14.01,2013-01-22 07:47:00,
2013-01-22 01:50:00,15.6,7.3,30.16,NNW,344,5.0,7.0,69,0.00,,---,0.00,0.00,VWS V14.01,2013-01-22 07:50:00,
2013-01-22 01:53:00,15.6,7.3,30.16,NNW,347,5.0,7.0,69,0.00,,---,0.00,0.00,VWS V14.01,2013-01-22 07:53:00,
2013-01-22 01:55:00,15.6,7.3,30.16,ESE,102,6.0,7.0,69,0.00,,---,0.00,0.00,VWS V14.01,2013-01-22 07:55:00,
2013-01-22 01:58:00,15.4,7.4,30.16,NNW,347,6.0,7.0,70,0.00,,---,0.00,0.00,VWS V14.01,2013-01-22 07:58:00,
2013-01-22 02:00:00,15.4,7.4,30.18,North,0,6.0,7.0,70,0.00,,---,0.00,0.00,VWS V14.01,2013-01-22 08:00:00,
2013-01-22 02:03:00,15.4,7.4,30.18,NW,312,7.0,7.0,70,0.00,,---,0.00,0.00,VWS V14.01,2013-01-22 08:03:00,
2013-01-22 02:05:00,15.4,7.4,30.18,NW,323,5.0,7.0,70,0.00,,---,0.00,0.00,VWS V14.01,2013-01-22 08:05:00,
2013-01-22 02:08:00,15.4,7.4,30.18,NNW,328,6.0,7.0,70,0.00,,---,0.00,0.00,VWS V14.01,2013-01-22 08:08:00,
2013-01-22 02:10:00,15.4,7.4,30.18,NW,309,6.0,7.0,70,0.00,,---,0.00,0.00,VWS V14.01,2013-01-22 08:10:00,
2013-01-22 02:13:00,15.4,7.4,30.17,NNW,347,6.0,8.0,70,0.00,,---,0.00,0.00,VWS V14.01,2013-01-22 08:13:00,
2013-01-22 02:15:00,15.4,7.4,30.17,ESE,110,6.0,8.0,70,0.00,,---,0.00,0.00,VWS V14.01,2013-01-22 08:15:00,
2013-01-22 02:19:00,15.4,7.4,30.17,East,93,6.0,8.0,70,0.00,,---,0.00,0.00,VWS V14.01,2013-01-22 08:19:00,
2013-01-22 02:20:00,15.4,7.4,30.17,SE,126,7.0,8.0,70,0.00,,---,0.00,0.00,VWS V14.01,2013-01-22 08:20:00,
2013-01-22 02:24:00,15.2,7.2,30.17,South,182,6.0,9.0,70,0.00,,---,0.00,0.00,VWS V14.01,2013-01-22 08:24:00,
2013-01-22 02:25:00,15.2,7.2,30.17,WSW,250,5.0,9.0,70,0.00,,---,0.00,0.00,VWS V14.01,2013-01-22 08:25:00,
2013-01-22 02:29:00,15.1,7.1,30.16,West,280,7.0,8.0,70,0.00,,---,0.00,0.00,VWS V14.01,2013-01-22 08:29:00,
2013-01-22 02:30:00,15.1,7.1,30.16,WSW,244,6.0,8.0,70,0.00,,---,0.00,0.00,VWS V14.01,2013-01-22 08:30:00,
2013-01-22 02:34:00,15.1,7.4,30.16,South,185,6.0,10.0,71,0.00,,---,0.00,0.00,VWS V14.01,2013-01-22 08:34:00,
2013-01-22 02:35:00,15.1,7.4,30.16,South,185,6.0,10.0,71,0.00,,---,0.00,0.00,VWS V14.01,2013-01-22 08:35:00,
2013-01-22 02:39:00,14.9,7.2,30.16,SE,130,7.0,7.0,71,0.00,,---,0.00,0.00,VWS V14.01,2013-01-22 08:39:00,
2013-01-22 02:40:00,14.9,7.2,30.16,NNW,346,7.0,8.0,71,0.00,,---,0.00,0.00,VWS V14.01,2013-01-22 08:40:00,
2013-01-22 02:44:00,14.9,7.2,30.17,South,178,6.0,6.0,71,0.00,,---,0.00,0.00,VWS V14.01,2013-01-22 08:44:00,
2013-01-22 02:45:00,14.9,7.2,30.17,South,186,6.0,10.0,71,0.00,,---,0.00,0.00,VWS V14.01,2013-01-22 08:45:00,
2013-01-22 02:49:00,14.8,7.4,30.17,North,354,5.0,6.0,72,0.00,,---,0.00,0.00,VWS V14.01,2013-01-22 08:49:00,
2013-01-22 02:50:00,14.8,7.4,30.17,SSW,195,4.0,8.0,72,0.00,,---,0.00,0.00,VWS V14.01,2013-01-22 08:50:00,
2013-01-22 02:54:00,14.8,7.4,30.17,South,181,3.0,6.0,72,0.00,,---,0.00,0.00,VWS V14.01,2013-01-22 08:54:00,
2013-01-22 02:55:00,14.8,7.4,30.17,SSW,203,6.0,7.0,72,0.00,,---,0.00,0.00,VWS V14.01,2013-01-22 08:55:00,
2013-01-22 03:00:00,14.6,7.2,30.16,South,178,5.0,7.0,72,0.00,,---,0.00,0.00,VWS V14.01,2013-01-22 09:00:00,
2013-01-22 03:05:00,14.4,7.3,30.16,NW,311,6.0,7.0,73,0.00,,---,0.00,0.00,VWS V14.01,2013-01-22 09:05:00,
2013-01-22 03:10:00,14.4,7.3,30.16,SW,229,8.0,9.0,73,0.00,,---,0.00,0.00,VWS V14.01,2013-01-22 09:10:00,
2013-01-22 03:15:00,14.3,7.2,30.16,NW,326,6.0,7.0,73,0.00,,---,0.00,0.00,VWS V14.01,2013-01-22 09:15:00,
2013-01-22 03:20:00,14.3,7.2,30.16,NW,308,6.0,7.0,73,0.00,,---,0.00,0.00,VWS V14.01,2013-01-22 09:20:00,
2013-01-22 03:25:00,14.1,7.1,30.16,South,169,6.0,7.0,73,0.00,,---,0.00,0.00,VWS V14.01,2013-01-22 09:25:00,
2013-01-22 03:30:00,14.1,7.3,30.16,North,0,6.0,7.0,74,0.00,,---,0.00,0.00,VWS V14.01,2013-01-22 09:30:00,
2013-01-22 03:31:00,14.1,7.3,30.16,SSE,152,6.0,8.0,74,0.00,,---,0.00,0.00,VWS V14.01,2013-01-22 09:31:00,
2013-01-22 03:35:00,14.0,7.3,30.16,ESE,116,7.0,11.0,74,0.00,,---,0.00,0.00,VWS V14.01,2013-01-22 09:35:00,
2013-01-22 03:36:00,14.0,7.2,30.16,NNW,344,7.0,11.0,74,0.00,,---,0.00,0.00,VWS V14.01,2013-01-22 09:36:00,
2013-01-22 03:40:00,14.0,7.3,30.16,South,179,8.0,11.0,74,0.00,,---,0.00,0.00,VWS V14.01,2013-01-22 09:40:00,
2013-01-22 03:41:00,14.0,7.2,30.16,ESE,109,5.0,8.0,74,0.00,,---,0.00,0.00,VWS V14.01,2013-01-22 09:41:00,
2013-01-22 03:45:00,14.0,7.3,30.15,NW,318,5.0,9.0,74,0.00,,---,0.00,0.00,VWS V14.01,2013-01-22 09:45:00,
2013-01-22 03:46:00,14.0,7.2,30.15,ESE,107,7.0,7.0,74,0.00,,---,0.00,0.00,VWS V14.01,2013-01-22 09:46:00,
2013-01-22 03:50:00,14.0,7.3,30.15,West,278,6.0,10.0,74,0.00,,---,0.00,0.00,VWS V14.01,2013-01-22 09:50:00,
2013-01-22 03:51:00,14.0,7.2,30.15,NW,313,6.0,8.0,74,0.00,,---,0.00,0.00,VWS V14.01,2013-01-22 09:51:00,
2013-01-22 03:55:00,13.8,7.1,30.15,North,0,7.0,8.0,74,0.00,,---,0.00,0.00,VWS V14.01,2013-01-22 09:55:00,
2013-01-22 03:56:00,13.8,7.1,30.15,NNW,335,8.0,8.0,74,0.00,,---,0.00,0.00,VWS V14.01,2013-01-22 09:56:00,
2013-01-22 04:00:00,13.8,7.1,30.14,SE,134,9.0,10.0,74,0.00,,---,0.00,0.00,VWS V14.01,2013-01-22 10:00:00,
2013-01-22 04:01:00,13.6,6.9,30.14,WNW,282,7.0,10.0,74,0.00,,---,0.00,0.00,VWS V14.01,2013-01-22 10:01:00,
2013-01-22 04:05:00,13.6,7.2,30.14,North,0,7.0,10.0,75,0.00,,---,0.00,0.00,VWS V14.01,2013-01-22 10:05:00,
2013-01-22 04:06:00,13.5,7.1,30.14,West,280,6.0,8.0,75,0.00,,---,0.00,0.00,VWS V14.01,2013-01-22 10:06:00,
2013-01-22 04:10:00,13.5,7.1,30.14,West,260,7.0,9.0,75,0.00,,---,0.00,0.00,VWS V14.01,2013-01-22 10:10:00,
2013-01-22 04:12:00,13.3,6.9,30.14,West,275,7.0,9.0,75,0.00,,---,0.00,0.00,VWS V14.01,2013-01-22 10:12:00,
2013-01-22 04:15:00,13.3,6.9,30.14,WSW,237,8.0,9.0,75,0.00,,---,0.00,0.00,VWS V14.01,2013-01-22 10:15:00,
2013-01-22 04:17:00,13.3,6.9,30.14,NW,305,7.0,8.0,75,0.00,,---,0.00,0.00,VWS V14.01,2013-01-22 10:17:00,
2013-01-22 04:20:00,13.3,7.2,30.14,NNW,346,8.0,8.0,76,0.00,,---,0.00,0.00,VWS V14.01,2013-01-22 10:20:00,
2013-01-22 04:22:00,13.1,7.0,30.14,SSE,160,6.0,8.0,76,0.00,,---,0.00,0.00,VWS V14.01,2013-01-22 10:22:00,
2013-01-22 04:25:00,13.1,7.0,30.14,NNW,335,7.0,10.0,76,0.00,,---,0.00,0.00,VWS V14.01,2013-01-22 10:25:00,
2013-01-22 04:27:00,13.1,7.0,30.14,WNW,302,5.0,8.0,76,0.00,,---,0.00,0.00,VWS V14.01,2013-01-22 10:27:00,
2013-01-22 04:30:00,13.1,7.0,30.15,WSW,240,5.0,8.0,76,0.00,,---,0.00,0.00,VWS V14.01,2013-01-22 10:30:00,
2013-01-22 04:32:00,13.1,7.0,30.15,North,0,7.0,7.0,76,0.00,,---,0.00,0.00,VWS V14.01,2013-01-22 10:32:00,
2013-01-22 04:35:00,13.1,7.0,30.15,East,85,6.0,8.0,76,0.00,,---,0.00,0.00,VWS V14.01,2013-01-22 10:35:00,
2013-01-22 04:37:00,13.1,7.0,30.15,SW,227,7.0,7.0,76,0.00,,---,0.00,0.00,VWS V14.01,2013-01-22 10:37:00,
2013-01-22 04:40:00,13.1,7.0,30.15,North,0,5.0,8.0,76,0.00,,---,0.00,0.00,VWS V14.01,2013-01-22 10:40:00,
2013-01-22 04:42:00,13.1,7.0,30.15,North,349,6.0,8.0,76,0.00,,---,0.00,0.00,VWS V14.01,2013-01-22 10:42:00,
2013-01-22 04:45:00,12.9,6.8,30.14,SW,220,8.0,10.0,76,0.00,,---,0.00,0.00,VWS V14.01,2013-01-22 10:45:00,
2013-01-22 04:47:00,12.9,7.1,30.14,North,0,6.0,9.0,77,0.00,,---,0.00,0.00,VWS V14.01,2013-01-22 10:47:00,
2013-01-22 04:50:00,12.9,7.1,30.14,North,356,7.0,9.0,77,0.00,,---,0.00,0.00,VWS V14.01,2013-01-22 10:50:00,
2013-01-22 04:52:00,12.9,7.1,30.14,ESE,123,6.0,10.0,77,0.00,,---,0.00,0.00,VWS V14.01,2013-01-22 10:52:00,
2013-01-22 04:55:00,12.9,7.1,30.14,NNW,346,7.0,10.0,77,0.00,,---,0.00,0.00,VWS V14.01,2013-01-22 10:55:00,
2013-01-22 04:57:00,12.9,7.1,30.14,ESE,123,3.0,10.0,77,0.00,,---,0.00,0.00,VWS V14.01,2013-01-22 10:57:00,
2013-01-22 05:00:00,12.9,7.1,30.14,North,0,6.0,10.0,77,0.00,,---,0.00,0.00,VWS V14.01,2013-01-22 11:00:00,
2013-01-22 05:03:00,12.9,7.1,30.14,East,99,7.0,8.0,77,0.00,,---,0.00,0.00,VWS V14.01,2013-01-22 11:03:00,
2013-01-22 05:05:00,12.9,7.1,30.14,West,263,6.0,8.0,77,0.00,,---,0.00,0.00,VWS V14.01,2013-01-22 11:05:00,
2013-01-22 05:08:00,12.9,7.1,30.14,North,349,5.0,8.0,77,0.00,,---,0.00,0.00,VWS V14.01,2013-01-22 11:08:00,
2013-01-22 05:10:00,12.9,7.1,30.14,East,97,8.0,8.0,77,0.00,,---,0.00,0.00,VWS V14.01,2013-01-22 11:10:00,
2013-01-22 05:13:00,12.9,7.1,30.14,NW,311,6.0,9.0,77,0.00,,---,0.00,0.00,VWS V14.01,2013-01-22 11:13:00,
2013-01-22 05:15:00,12.9,7.1,30.14,North,0,7.0,9.0,77,0.00,,---,0.00,0.00,VWS V14.01,2013-01-22 11:15:00,
2013-01-22 05:18:00,12.9,7.1,30.14,SW,224,6.0,8.0,77,0.00,,---,0.00,0.00,VWS V14.01,2013-01-22 11:18:00,
2013-01-22 05:20:00,12.9,7.1,30.14,West,278,5.0,8.0,77,0.00,,---,0.00,0.00,VWS V14.01,2013-01-22 11:20:00,
2013-01-22 05:23:00,12.9,7.1,30.14,ESE,114,6.0,8.0,77,0.00,,---,0.00,0.00,VWS V14.01,2013-01-22 11:23:00,
2013-01-22 05:25:00,12.9,7.1,30.14,NW,322,7.0,8.0,77,0.00,,---,0.00,0.00,VWS V14.01,2013-01-22 11:25:00,
2013-01-22 05:28:00,12.8,7.0,30.13,ESE,113,10.0,10.0,77,0.00,,---,0.00,0.00,VWS V14.01,2013-01-22 11:28:00,
2013-01-22 05:30:00,12.8,7.0,30.13,North,0,8.0,10.0,77,0.00,,---,0.00,0.00,VWS V14.01,2013-01-22 11:30:00,
2013-01-22 05:33:00,12.8,7.0,30.13,SSE,167,8.0,10.0,77,0.00,,---,0.00,0.00,VWS V14.01,2013-01-22 11:33:00,
2013-01-22 05:35:00,12.8,7.0,30.13,WSW,251,9.0,10.0,77,0.00,,---,0.00,0.00,VWS V14.01,2013-01-22 11:35:00,
2013-01-22 05:39:00,12.8,7.0,30.13,North,0,7.0,12.0,77,0.00,,---,0.00,0.00,VWS V14.01,2013-01-22 11:39:00,
2013-01-22 05:40:00,12.8,7.0,30.13,NW,311,5.0,12.0,77,0.00,,---,0.00,0.00,VWS V14.01,2013-01-22 11:40:00,
2013-01-22 05:44:00,12.8,7.2,30.13,North,0,7.0,8.0,78,0.00,,---,0.00,0.00,VWS V14.01,2013-01-22 11:44:00,
2013-01-22 05:45:00,12.8,7.2,30.13,West,275,5.0,8.0,78,0.00,,---,0.00,0.00,VWS V14.01,2013-01-22 11:45:00,
2013-01-22 05:49:00,12.8,7.0,30.13,WSW,254,7.0,8.0,77,0.00,,---,0.00,0.00,VWS V14.01,2013-01-22 11:49:00,
2013-01-22 05:50:00,12.8,7.0,30.13,SE,145,6.0,8.0,77,0.00,,---,0.00,0.00,VWS V14.01,2013-01-22 11:50:00,
2013-01-22 05:54:00,12.8,7.0,30.13,East,88,6.0,7.0,77,0.00,,---,0.00,0.00,VWS V14.01,2013-01-22 11:54:00,
2013-01-22 05:55:00,12.8,7.0,30.13,East,88,6.0,7.0,77,0.00,,---,0.00,0.00,VWS V14.01,2013-01-22 11:55:00,
2013-01-22 05:59:00,12.6,7.1,30.15,ESE,104,5.0,8.0,78,0.00,,---,0.00,0.00,VWS V14.01,2013-01-22 11:59:00,
2013-01-22 06:00:00,12.6,7.1,30.15,ESE,104,5.0,8.0,78,0.00,,---,0.00,0.00,VWS V14.01,2013-01-22 12:00:00,
2013-01-22 06:04:00,12.6,7.1,30.15,North,0,5.0,6.0,78,0.00,,---,0.00,0.00,VWS V14.01,2013-01-22 12:04:00,
2013-01-22 06:05:00,12.8,7.2,30.15,SSW,209,6.0,6.0,78,0.00,,---,0.00,0.00,VWS V14.01,2013-01-22 12:05:00,
2013-01-22 06:09:00,12.6,7.1,30.15,WNW,296,5.0,6.0,78,0.00,,---,0.00,0.00,VWS V14.01,2013-01-22 12:09:00,
2013-01-22 06:10:00,12.6,7.1,30.15,WNW,296,5.0,6.0,78,0.00,,---,0.00,0.00,VWS V14.01,2013-01-22 12:10:00,
2013-01-22 06:14:00,12.6,6.8,30.14,North,0,7.0,8.0,77,0.00,,---,0.00,0.00,VWS V14.01,2013-01-22 12:14:00,
2013-01-22 06:15:00,12.6,6.8,30.14,North,0,7.0,8.0,77,0.00,,---,0.00,0.00,VWS V14.01,2013-01-22 12:15:00,
2013-01-22 06:19:00,12.6,7.1,30.14,North,350,6.0,6.0,78,0.00,,---,0.00,0.00,VWS V14.01,2013-01-22 12:19:00,
2013-01-22 06:20:00,12.6,7.1,30.14,SW,232,5.0,8.0,78,0.00,,---,0.00,0.00,VWS V14.01,2013-01-22 12:20:00,
2013-01-22 06:24:00,12.4,6.9,30.14,North,350,7.0,7.0,78,0.00,,---,0.00,0.00,VWS V14.01,2013-01-22 12:24:00,
2013-01-22 06:25:00,12.4,6.9,30.14,NW,304,6.0,9.0,78,0.00,,---,0.00,0.00,VWS V14.01,2013-01-22 12:25:00,
2013-01-22 06:29:00,12.4,6.9,30.14,NNW,347,6.0,7.0,78,0.00,,---,0.00,0.00,VWS V14.01,2013-01-22 12:29:00,
2013-01-22 06:30:00,12.4,6.9,30.14,North,354,6.0,7.0,78,0.00,,---,0.00,0.00,VWS V14.01,2013-01-22 12:30:00,
2013-01-22 06:35:00,12.4,6.9,30.14,North,0,8.0,8.0,78,0.00,,---,0.00,0.00,VWS V14.01,2013-01-22 12:35:00,
2013-01-22 06:40:00,12.3,7.0,30.14,North,0,6.0,7.0,79,0.00,,---,0.00,0.00,VWS V14.01,2013-01-22 12:40:00,
2013-01-22 06:45:00,12.3,7.0,30.13,SW,220,6.0,8.0,79,0.00,,---,0.00,0.00,VWS V14.01,2013-01-22 12:45:00,
2013-01-22 06:50:00,12.3,7.0,30.13,ESE,112,10.0,12.0,79,0.00,,---,0.00,0.00,VWS V14.01,2013-01-22 12:50:00,
2013-01-22 06:55:00,12.3,7.0,30.13,NNW,340,8.0,11.0,79,0.00,,---,0.00,0.00,VWS V14.01,2013-01-22 12:55:00,
2013-01-22 07:00:00,12.3,7.0,30.13,NNW,332,6.0,9.0,79,0.00,,---,0.00,0.00,VWS V14.01,2013-01-22 13:00:00,
2013-01-22 07:05:00,12.4,7.1,30.13,North,0,6.0,7.0,79,0.00,,---,0.00,0.00,VWS V14.01,2013-01-22 13:05:00,
2013-01-22 07:10:00,12.6,7.1,30.13,NW,313,3.0,7.0,78,0.00,,---,0.00,0.00,VWS V14.01,2013-01-22 13:10:00,
2013-01-22 07:15:00,12.6,7.1,30.15,SW,227,6.0,8.0,78,0.00,,---,0.00,0.00,VWS V14.01,2013-01-22 13:15:00,
2013-01-22 07:16:00,12.6,7.1,30.15,NW,320,5.0,7.0,78,0.00,,---,0.00,0.00,VWS V14.01,2013-01-22 13:16:00,
2013-01-22 07:20:00,12.6,7.1,30.15,NNW,337,3.0,8.0,78,0.00,,---,0.00,0.00,VWS V14.01,2013-01-22 13:20:00,
2013-01-22 07:21:00,12.6,7.1,30.15,North,0,6.0,8.0,78,0.00,,---,0.00,0.00,VWS V14.01,2013-01-22 13:21:00,
2013-01-22 07:25:00,12.6,7.1,30.15,NW,306,5.0,8.0,78,0.00,,---,0.00,0.00,VWS V14.01,2013-01-22 13:25:00,
2013-01-22 07:26:00,12.6,7.1,30.15,North,0,5.0,6.0,78,0.00,,---,0.00,0.00,VWS V14.01,2013-01-22 13:26:00,
2013-01-22 07:30:00,12.6,7.1,30.15,North,350,6.0,7.0,78,0.00,,---,0.00,0.00,VWS V14.01,2013-01-22 13:30:00,
2013-01-22 07:31:00,12.6,7.1,30.15,West,261,4.0,6.0,78,0.00,,---,0.00,0.00,VWS V14.01,2013-01-22 13:31:00,
2013-01-22 07:35:00,12.6,7.1,30.15,NNW,344,6.0,7.0,78,0.00,,---,0.00,0.00,VWS V14.01,2013-01-22 13:35:00,
2013-01-22 07:36:00,12.8,7.2,30.15,North,0,5.0,6.0,78,0.00,,---,0.00,0.00,VWS V14.01,2013-01-22 13:36:00,
2013-01-22 07:40:00,12.6,7.1,30.15,NNW,346,7.0,7.0,78,0.00,,---,0.00,0.00,VWS V14.01,2013-01-22 13:40:00,
2013-01-22 07:41:00,12.6,7.1,30.15,North,356,7.0,7.0,78,0.00,,---,0.00,0.00,VWS V14.01,2013-01-22 13:41:00,
2013-01-22 07:45:00,12.4,6.9,30.17,NNW,328,5.0,8.0,78,0.00,,---,0.00,0.00,VWS V14.01,2013-01-22 13:45:00,
2013-01-22 07:47:00,12.4,6.9,30.17,North,0,7.0,7.0,78,0.00,,---,0.00,0.00,VWS V14.01,2013-01-22 13:47:00,
2013-01-22 07:50:00,12.4,6.9,30.17,SSE,160,5.0,7.0,78,0.00,,---,0.00,5.00,VWS V14.01,2013-01-22 13:50:00,
2013-01-22 07:52:00,12.4,6.9,30.17,North,0,6.0,8.0,78,0.00,,---,0.00,5.00,VWS V14.01,2013-01-22 13:52:00,
2013-01-22 07:55:00,12.4,6.9,30.17,NNW,330,6.0,8.0,78,0.00,,---,0.00,11.00,VWS V14.01,2013-01-22 13:55:00,
2013-01-22 07:57:00,12.4,6.9,30.17,North,350,6.0,7.0,78,0.00,,---,0.00,11.00,VWS V14.01,2013-01-22 13:57:00,
2013-01-22 08:00:00,12.6,7.1,30.17,NW,304,6.0,7.0,78,0.00,,---,0.00,14.00,VWS V14.01,2013-01-22 14:00:00,
2013-01-22 08:02:00,12.6,7.3,30.17,North,0,7.0,7.0,79,0.00,,---,0.00,23.00,VWS V14.01,2013-01-22 14:02:00,
2013-01-22 08:05:00,12.8,7.5,30.17,ENE,64,6.0,7.0,79,0.00,,---,0.00,23.00,VWS V14.01,2013-01-22 14:05:00,
2013-01-22 08:07:00,12.8,7.2,30.17,WNW,291,5.0,8.0,78,0.00,,---,0.00,30.00,VWS V14.01,2013-01-22 14:07:00,
2013-01-22 08:10:00,12.8,7.2,30.17,SSE,162,6.0,10.0,78,0.00,,---,0.00,30.00,VWS V14.01,2013-01-22 14:10:00,
2013-01-22 08:12:00,12.9,7.3,30.17,North,350,5.0,8.0,78,0.00,,---,0.00,33.00,VWS V14.01,2013-01-22 14:12:00,
2013-01-22 08:15:00,12.9,7.3,30.19,North,354,7.0,8.0,78,0.00,,---,0.00,44.00,VWS V14.01,2013-01-22 14:15:00,
2013-01-22 08:17:00,12.9,7.3,30.19,North,0,3.0,10.0,78,0.00,,---,0.00,44.00,VWS V14.01,2013-01-22 14:17:00,
2013-01-22 08:20:00,12.9,7.6,30.19,South,172,6.0,10.0,79,0.00,,---,0.00,46.00,VWS V14.01,2013-01-22 14:20:00,
2013-01-22 08:22:00,13.1,7.8,30.19,ESE,104,6.0,8.0,79,0.00,,---,0.00,55.00,VWS V14.01,2013-01-22 14:22:00,
2013-01-22 08:25:00,13.1,7.5,30.19,North,352,8.0,11.0,78,0.00,,---,0.00,55.00,VWS V14.01,2013-01-22 14:25:00,
2013-01-22 08:27:00,13.3,7.7,30.19,NNW,330,7.0,10.0,78,0.00,,---,0.00,77.00,VWS V14.01,2013-01-22 14:27:00,
2013-01-22 08:30:00,13.3,7.7,30.19,SW,223,6.0,10.0,78,0.00,,---,0.00,83.00,VWS V14.01,2013-01-22 14:30:00,
2013-01-22 08:32:00,13.5,7.9,30.19,North,0,3.0,7.0,78,0.00,,---,0.00,90.00,VWS V14.01,2013-01-22 14:32:00,
2013-01-22 08:35:00,13.6,8.0,30.19,North,0,6.0,7.0,78,0.00,,---,0.00,91.00,VWS V14.01,2013-01-22 14:35:00,
2013-01-22 08:37:00,13.8,8.2,30.19,North,0,5.0,11.0,78,0.00,,---,0.00,93.00,VWS V14.01,2013-01-22 14:37:00,
2013-01-22 08:40:00,13.8,8.2,30.19,NW,325,8.0,11.0,78,0.00,,---,0.00,106.00,VWS V14.01,2013-01-22 14:40:00,
2013-01-22 08:42:00,14.0,8.4,30.19,North,349,7.0,8.0,78,0.00,,---,0.00,114.00,VWS V14.01,2013-01-22 14:42:00,
2013-01-22 08:45:00,14.0,8.4,30.19,WNW,296,8.0,10.0,78,0.00,,---,0.00,109.00,VWS V14.01,2013-01-22 14:45:00,
2013-01-22 08:48:00,14.1,8.5,30.19,West,265,10.0,11.0,78,0.00,,---,0.00,123.00,VWS V14.01,2013-01-22 14:48:00,
2013-01-22 08:50:00,14.1,8.5,30.19,NW,315,11.0,11.0,78,0.00,,---,0.00,127.00,VWS V14.01,2013-01-22 14:50:00,
2013-01-22 08:53:00,14.3,8.4,30.19,NNW,342,11.0,11.0,77,0.00,,---,0.00,137.00,VWS V14.01,2013-01-22 14:53:00,
2013-01-22 08:55:00,14.3,8.4,30.19,North,0,9.0,11.0,77,0.00,,---,0.00,137.00,VWS V14.01,2013-01-22 14:55:00,
2013-01-22 08:58:00,14.6,8.7,30.19,North,0,6.0,11.0,77,0.00,,---,0.00,150.00,VWS V14.01,2013-01-22 14:58:00,
2013-01-22 09:00:00,14.6,8.7,30.19,North,0,10.0,11.0,77,0.00,,---,0.00,153.00,VWS V14.01,2013-01-22 15:00:00,
2013-01-22 09:03:00,14.9,9.0,30.19,NNW,335,8.0,13.0,77,0.00,,---,0.00,162.00,VWS V14.01,2013-01-22 15:03:00,
2013-01-22 09:05:00,15.1,8.9,30.19,SE,126,10.0,13.0,76,0.00,,---,0.00,167.00,VWS V14.01,2013-01-22 15:05:00,
2013-01-22 09:08:00,15.4,8.9,30.19,North,352,9.0,12.0,75,0.00,,---,0.00,171.00,VWS V14.01,2013-01-22 15:08:00,
2013-01-22 09:10:00,15.4,8.9,30.19,ESE,120,8.0,12.0,75,0.00,,---,0.00,178.00,VWS V14.01,2013-01-22 15:10:00,
2013-01-22 09:13:00,15.6,9.1,30.19,NW,326,7.0,13.0,75,0.00,,---,0.00,188.00,VWS V14.01,2013-01-22 15:13:00,
2013-01-22 09:15:00,15.7,9.2,30.19,North,0,8.0,13.0,75,0.00,,---,0.00,188.00,VWS V14.01,2013-01-22 15:15:00,
2013-01-22 09:18:00,16.1,9.0,30.19,North,0,12.0,17.0,73,0.00,,---,0.00,199.00,VWS V14.01,2013-01-22 15:18:00,
2013-01-22 09:20:00,16.1,9.0,30.19,NW,316,12.0,17.0,73,0.00,,---,0.00,202.00,VWS V14.01,2013-01-22 15:20:00,
2013-01-22 09:23:00,16.2,8.8,30.19,NW,320,11.0,15.0,72,0.00,,---,0.00,208.00,VWS V14.01,2013-01-22 15:23:00,
2013-01-22 09:25:00,16.2,8.8,30.19,North,0,9.0,15.0,72,0.00,,---,0.00,192.00,VWS V14.01,2013-01-22 15:25:00,
2013-01-22 09:29:00,16.4,9.0,30.19,NW,326,8.0,13.0,72,0.00,,---,0.00,225.00,VWS V14.01,2013-01-22 15:29:00,
2013-01-22 09:30:00,16.5,9.1,30.19,North,0,7.0,13.0,72,0.00,,---,0.00,238.00,VWS V14.01,2013-01-22 15:30:00,
2013-01-22 09:34:00,16.9,9.1,30.19,North,0,11.0,14.0,71,0.00,,---,0.00,246.00,VWS V14.01,2013-01-22 15:34:00,
2013-01-22 09:35:00,16.9,9.1,30.19,South,184,11.0,14.0,71,0.00,,---,0.00,248.00,VWS V14.01,2013-01-22 15:35:00,
2013-01-22 09:39:00,17.2,9.4,30.19,NNW,346,12.0,13.0,71,0.00,,---,0.00,267.00,VWS V14.01,2013-01-22 15:39:00,
2013-01-22 09:40:00,17.2,9.4,30.19,NNW,333,8.0,13.0,71,0.00,,---,0.00,267.00,VWS V14.01,2013-01-22 15:40:00,
2013-01-22 09:44:00,17.3,9.2,30.18,WNW,298,10.0,14.0,70,0.00,,---,0.00,280.00,VWS V14.01,2013-01-22 15:44:00,
2013-01-22 09:45:00,17.3,9.2,30.18,WNW,298,10.0,14.0,70,0.00,,---,0.00,280.00,VWS V14.01,2013-01-22 15:45:00,
2013-01-22 09:49:00,17.7,9.3,30.18,SSE,151,12.0,18.0,69,0.00,,---,0.00,282.00,VWS V14.01,2013-01-22 15:49:00,
2013-01-22 09:50:00,17.7,9.3,30.18,SSE,151,12.0,18.0,69,0.00,,---,0.00,282.00,VWS V14.01,2013-01-22 15:50:00,
2013-01-22 09:54:00,17.8,9.0,30.18,North,349,14.0,14.0,68,0.00,,---,0.00,304.00,VWS V14.01,2013-01-22 15:54:00,
2013-01-22 09:55:00,17.8,9.1,30.18,North,0,12.0,18.0,68,0.00,,---,0.00,304.00,VWS V14.01,2013-01-22 15:55:00,
2013-01-22 09:59:00,18.3,9.2,30.17,NNW,339,13.0,13.0,67,0.00,,---,0.00,315.00,VWS V14.01,2013-01-22 15:59:00,
2013-01-22 10:00:00,18.3,9.2,30.17,NW,309,11.0,17.0,67,0.00,,---,0.00,315.00,VWS V14.01,2013-01-22 16:00:00,
2013-01-22 10:04:00,18.4,9.3,30.17,NNW,337,6.0,6.0,67,0.00,,---,0.00,315.00,VWS V14.01,2013-01-22 16:04:00,
2013-01-22 10:05:00,18.4,9.3,30.17,NNW,337,6.0,16.0,67,0.00,,---,0.00,315.00,VWS V14.01,2013-01-22 16:05:00,
2013-01-22 10:10:00,18.9,9.1,30.17,North,359,7.0,11.0,65,0.00,,---,0.00,331.00,VWS V14.01,2013-01-22 16:10:00,
2013-01-22 10:15:00,19.5,9.7,30.17,North,0,10.0,14.0,65,0.00,,---,0.00,343.00,VWS V14.01,2013-01-22 16:15:00,
2013-01-22 10:20:00,19.7,9.5,30.17,North,357,16.0,16.0,64,0.00,,---,0.00,355.00,VWS V14.01,2013-01-22 16:20:00,
2013-01-22 10:25:00,19.9,9.7,30.17,NW,325,8.0,13.0,64,0.00,,---,0.00,364.00,VWS V14.01,2013-01-22 16:25:00,
2013-01-22 10:30:00,20.5,10.3,30.18,North,0,6.0,12.0,64,0.00,,---,0.00,375.00,VWS V14.01,2013-01-22 16:30:00,
2013-01-22 10:35:00,21.0,10.4,30.18,South,178,8.0,11.0,63,0.00,,---,0.00,384.00,VWS V14.01,2013-01-22 16:35:00,
2013-01-22 10:40:00,21.4,10.4,30.18,North,356,11.0,12.0,62,0.00,,---,0.00,398.00,VWS V14.01,2013-01-22 16:40:00,
2013-01-22 10:45:00,21.6,10.2,30.18,North,0,9.0,13.0,61,0.00,,---,0.00,413.00,VWS V14.01,2013-01-22 16:45:00,
2013-01-22 10:50:00,21.8,10.8,30.18,North,0,13.0,14.0,62,0.00,,---,0.00,421.00,VWS V14.01,2013-01-22 16:50:00,
2013-01-22 10:51:00,21.8,10.4,30.18,NNW,342,16.0,16.0,61,0.00,,---,0.00,424.00,VWS V14.01,2013-01-22 16:51:00,
2013-01-22 10:55:00,21.9,10.9,30.18,NW,311,11.0,16.0,62,0.00,,---,0.00,428.00,VWS V14.01,2013-01-22 16:55:00,
2013-01-22 10:56:00,22.1,10.7,30.18,North,359,12.0,13.0,61,0.00,,---,0.00,429.00,VWS V14.01,2013-01-22 16:56:00,
2013-01-22 11:00:00,22.4,10.6,30.19,South,182,10.0,14.0,60,0.00,,---,0.00,426.00,VWS V14.01,2013-01-22 17:00:00,
2013-01-22 11:01:00,22.4,10.6,30.19,South,182,10.0,10.0,60,0.00,,---,0.00,426.00,VWS V14.01,2013-01-22 17:01:00,
2013-01-22 11:05:00,23.2,11.4,30.19,NNW,346,8.0,13.0,60,0.00,,---,0.00,428.00,VWS V14.01,2013-01-22 17:05:00,
2013-01-22 11:06:00,23.3,10.7,30.19,West,280,10.0,12.0,58,0.00,,---,0.00,438.00,VWS V14.01,2013-01-22 17:06:00,
2013-01-22 11:10:00,23.5,10.9,30.19,NW,319,9.0,12.0,58,0.00,,---,0.00,424.00,VWS V14.01,2013-01-22 17:10:00,
2013-01-22 11:11:00,23.6,11.0,30.19,NW,304,10.0,11.0,58,0.00,,---,0.00,436.00,VWS V14.01,2013-01-22 17:11:00,
2013-01-22 11:15:00,23.9,10.9,30.18,South,175,10.0,14.0,57,0.00,,---,0.00,438.00,VWS V14.01,2013-01-22 17:15:00,
2013-01-22 11:16:00,24.1,11.1,30.18,WSW,243,8.0,13.0,57,0.00,,---,0.00,436.00,VWS V14.01,2013-01-22 17:16:00,
2013-01-22 11:20:00,24.1,11.1,30.18,North,349,9.0,13.0,57,0.00,,---,0.00,445.00,VWS V14.01,2013-01-22 17:20:00,
2013-01-22 11:22:00,24.2,11.2,30.18,WNW,287,10.0,11.0,57,0.00,,---,0.00,452.00,VWS V14.01,2013-01-22 17:22:00,
2013-01-22 11:25:00,24.4,11.0,30.18,ESE,123,7.0,12.0,56,0.00,,---,0.00,450.00,VWS V14.01,2013-01-22 17:25:00,
2013-01-22 11:27:00,24.7,11.2,30.18,NW,316,9.0,13.0,56,0.00,,---,0.00,456.00,VWS V14.01,2013-01-22 17:27:00,
2013-01-22 11:30:00,25.0,11.1,30.17,North,0,6.0,13.0,55,0.00,,---,0.00,463.00,VWS V14.01,2013-01-22 17:30:00,
2013-01-22 11:32:00,25.3,11.4,30.17,SW,215,10.0,13.0,55,0.00,,---,0.00,473.00,VWS V14.01,2013-01-22 17:32:00,
2013-01-22 11:35:00,25.4,11.5,30.17,WNW,294,3.0,13.0,55,0.00,,---,0.00,482.00,VWS V14.01,2013-01-22 17:35:00,
2013-01-22 11:37:00,25.6,11.3,30.17,ESE,121,9.0,13.0,54,0.00,,---,0.00,480.00,VWS V14.01,2013-01-22 17:37:00,
2013-01-22 11:40:00,25.6,11.7,30.17,WNW,282,10.0,13.0,55,0.00,,---,0.00,431.00,VWS V14.01,2013-01-22 17:40:00,
2013-01-22 11:42:00,25.6,11.3,30.17,North,352,6.0,13.0,54,0.00,,---,0.00,459.00,VWS V14.01,2013-01-22 17:42:00,
2013-01-22 11:45:00,25.6,11.3,30.17,WSW,237,8.0,13.0,54,0.00,,---,0.00,81.00,VWS V14.01,2013-01-22 17:45:00,
2013-01-22 11:47:00,25.8,11.9,30.17,North,0,10.0,13.0,55,0.00,,---,0.00,76.00,VWS V14.01,2013-01-22 17:47:00,
2013-01-22 11:50:00,25.8,11.5,30.17,WSW,246,5.0,13.0,54,0.00,,---,0.00,76.00,VWS V14.01,2013-01-22 17:50:00,
2013-01-22 11:52:00,26.0,11.6,30.17,SSE,162,10.0,12.0,54,0.00,,---,0.00,72.00,VWS V14.01,2013-01-22 17:52:00,
2013-01-22 11:55:00,26.0,11.6,30.17,SE,133,2.0,12.0,54,0.00,,---,0.00,72.00,VWS V14.01,2013-01-22 17:55:00,
2013-01-22 11:57:00,26.3,11.9,30.17,SSE,164,7.0,11.0,54,0.00,,---,0.00,88.00,VWS V14.01,2013-01-22 17:57:00,
2013-01-22 12:00:00,26.4,12.0,30.17,ESE,117,4.0,11.0,54,0.00,,---,0.00,123.00,VWS V14.01,2013-01-22 18:00:00,
2013-01-22 12:02:00,26.7,11.9,30.17,SW,234,5.0,7.0,53,0.00,,---,0.00,97.00,VWS V14.01,2013-01-22 18:02:00,
2013-01-22 12:05:00,26.9,12.1,30.17,SSW,212,7.0,11.0,53,0.00,,---,0.00,97.00,VWS V14.01,2013-01-22 18:05:00,
2013-01-22 12:07:00,27.2,11.9,30.17,North,0,10.0,10.0,52,0.00,,---,0.00,461.00,VWS V14.01,2013-01-22 18:07:00,
2013-01-22 12:10:00,27.2,11.9,30.17,WSW,254,12.0,12.0,52,0.00,,---,0.00,65.00,VWS V14.01,2013-01-22 18:10:00,
2013-01-22 12:12:00,27.5,11.8,30.17,SSW,205,6.0,7.0,51,0.00,,---,0.00,123.00,VWS V14.01,2013-01-22 18:12:00,
2013-01-22 12:15:00,27.5,12.2,30.15,SSE,154,6.0,7.0,52,0.00,,---,0.00,484.00,VWS V14.01,2013-01-22 18:15:00,
2013-01-22 12:18:00,27.9,12.1,30.15,NNW,333,8.0,11.0,51,0.00,,---,0.00,500.00,VWS V14.01,2013-01-22 18:18:00,
2013-01-22 12:20:00,28.1,12.3,30.15,South,182,8.0,12.0,51,0.00,,---,0.00,438.00,VWS V14.01,2013-01-22 18:20:00,
2013-01-22 12:23:00,27.9,12.1,30.15,ESE,121,6.0,11.0,51,0.00,,---,0.00,348.00,VWS V14.01,2013-01-22 18:23:00,
2013-01-22 12:25:00,27.9,12.6,30.15,WSW,241,5.0,11.0,52,0.00,,---,0.00,114.00,VWS V14.01,2013-01-22 18:25:00,
2013-01-22 12:28:00,28.5,12.2,30.15,SE,143,4.0,7.0,50,0.00,,---,0.00,65.00,VWS V14.01,2013-01-22 18:28:00,
2013-01-22 12:30:00,28.7,12.4,30.14,SSE,161,10.0,10.0,50,0.00,,---,0.00,63.00,VWS V14.01,2013-01-22 18:30:00,
2013-01-22 12:33:00,28.8,12.1,30.14,West,268,13.0,13.0,49,0.00,,---,0.00,62.00,VWS V14.01,2013-01-22 18:33:00,
2013-01-22 12:35:00,28.8,12.1,30.14,SSE,157,8.0,13.0,49,0.00,,---,0.00,60.00,VWS V14.01,2013-01-22 18:35:00,
2013-01-22 12:38:00,28.5,12.2,30.14,ESE,120,6.0,10.0,50,0.00,,---,0.00,58.00,VWS V14.01,2013-01-22 18:38:00,
2013-01-22 12:40:00,28.5,12.2,30.14,NNW,339,11.0,13.0,50,0.00,,---,0.00,67.00,VWS V14.01,2013-01-22 18:40:00,
2013-01-22 12:43:00,28.5,12.2,30.14,West,267,6.0,11.0,50,0.00,,---,0.00,67.00,VWS V14.01,2013-01-22 18:43:00,
2013-01-22 12:45:00,28.5,12.2,30.12,SE,128,6.0,11.0,50,0.00,,---,0.00,69.00,VWS V14.01,2013-01-22 18:45:00,
2013-01-22 12:48:00,28.7,12.4,30.12,SSW,212,9.0,12.0,50,0.00,,---,0.00,69.00,VWS V14.01,2013-01-22 18:48:00,
2013-01-22 12:50:00,28.7,12.4,30.12,WSW,244,7.0,12.0,50,0.00,,---,0.00,65.00,VWS V14.01,2013-01-22 18:50:00,
2013-01-22 12:53:00,29.0,12.7,30.12,SE,138,12.0,12.0,50,0.00,,---,0.00,111.00,VWS V14.01,2013-01-22 18:53:00,
2013-01-22 12:55:00,29.1,12.8,30.12,WNW,289,7.0,12.0,50,0.00,,---,0.00,146.00,VWS V14.01,2013-01-22 18:55:00,
2013-01-22 12:58:00,29.7,12.9,30.12,SSE,148,5.0,11.0,49,0.00,,---,0.00,123.00,VWS V14.01,2013-01-22 18:58:00,
2013-01-22 13:00:00,29.7,12.9,30.10,SE,131,6.0,14.0,49,0.00,,---,0.00,84.00,VWS V14.01,2013-01-22 19:00:00,
2013-01-22 13:03:00,30.0,13.2,30.10,NW,323,12.0,12.0,49,0.00,,---,0.00,137.00,VWS V14.01,2013-01-22 19:03:00,
2013-01-22 13:05:00,30.0,13.2,30.10,NNW,342,11.0,14.0,49,0.00,,---,0.00,239.00,VWS V14.01,2013-01-22 19:05:00,
2013-01-22 13:08:00,30.1,12.8,30.10,SE,131,12.0,13.0,48,0.00,,---,0.00,461.00,VWS V14.01,2013-01-22 19:08:00,
2013-01-22 13:10:00,30.1,12.8,30.10,SSE,147,7.0,13.0,48,0.00,,---,0.00,480.00,VWS V14.01,2013-01-22 19:10:00,
2013-01-22 13:15:00,33.1,13.6,30.08,SSW,209,0.0,10.0,44,0.00,,---,0.00,450.00,VWS V14.01,2013-01-22 19:15:00,
2013-01-22 13:18:00,30.4,13.1,30.08,SE,130,7.0,7.0,48,0.00,,---,0.00,509.00,VWS V14.01,2013-01-22 19:18:00,
2013-01-22 13:20:00,30.6,13.3,30.08,ESE,123,11.0,11.0,48,0.00,,---,0.00,498.00,VWS V14.01,2013-01-22 19:20:00,
2013-01-22 13:23:00,31.0,13.1,30.08,SSW,192,12.0,14.0,47,0.00,,---,0.00,500.00,VWS V14.01,2013-01-22 19:23:00,
2013-01-22 13:25:00,31.0,13.1,30.08,SE,145,10.0,14.0,47,0.00,,---,0.00,491.00,VWS V14.01,2013-01-22 19:25:00,
2013-01-22 13:28:00,31.0,12.7,30.08,SW,226,7.0,12.0,46,0.00,,---,0.00,496.00,VWS V14.01,2013-01-22 19:28:00,
2013-01-22 13:30:00,31.0,13.1,30.08,East,90,5.0,12.0,47,0.00,,---,0.00,494.00,VWS V14.01,2013-01-22 19:30:00,
2013-01-22 13:33:00,31.3,13.4,30.08,East,97,5.0,11.0,47,0.00,,---,0.00,489.00,VWS V14.01,2013-01-22 19:33:00,
2013-01-22 13:35:00,31.3,12.9,30.08,SE,136,3.0,11.0,46,0.00,,---,0.00,457.00,VWS V14.01,2013-01-22 19:35:00,
2013-01-22 13:38:00,31.6,13.7,30.08,SSE,165,6.0,14.0,47,0.00,,---,0.00,457.00,VWS V14.01,2013-01-22 19:38:00,
2013-01-22 13:40:00,31.8,13.4,30.08,SSE,164,7.0,14.0,46,0.00,,---,0.00,62.00,VWS V14.01,2013-01-22 19:40:00,
2013-01-22 13:45:00,34.4,14.8,30.08,SW,216,3.0,7.0,44,0.00,,---,0.00,415.00,VWS V14.01,2013-01-22 19:45:00,
2013-01-22 13:48:00,31.9,13.5,30.09,SE,141,1.0,3.0,46,0.00,,---,0.00,106.00,VWS V14.01,2013-01-22 19:48:00,
2013-01-22 13:50:00,31.9,13.5,30.09,SE,141,0.0,3.0,46,0.00,,---,0.00,106.00,VWS V14.01,2013-01-22 19:50:00,
2013-01-22 13:53:00,32.2,13.8,30.09,SSE,162,2.0,12.0,46,0.00,,---,0.00,486.00,VWS V14.01,2013-01-22 19:53:00,
2013-01-22 13:55:00,32.2,13.8,30.09,SSE,151,5.0,12.0,46,0.00,,---,0.00,486.00,VWS V14.01,2013-01-22 19:55:00,
2013-01-22 13:58:00,32.8,13.8,30.08,SE,133,8.0,8.0,45,0.00,,---,0.00,480.00,VWS V14.01,2013-01-22 19:58:00,
2013-01-22 14:00:00,32.9,13.9,30.08,SSE,157,8.0,9.0,45,0.00,,---,0.00,475.00,VWS V14.01,2013-01-22 20:00:00,
2013-01-22 14:03:00,32.9,13.9,30.08,SE,127,1.0,8.0,45,0.00,,---,0.00,477.00,VWS V14.01,2013-01-22 20:03:00,
2013-01-22 14:05:00,32.9,13.9,30.08,SSW,196,12.0,12.0,45,0.00,,---,0.00,475.00,VWS V14.01,2013-01-22 20:05:00,
2013-01-22 14:09:00,33.1,13.6,30.08,SSW,202,10.0,12.0,44,0.00,,---,0.00,457.00,VWS V14.01,2013-01-22 20:09:00,
2013-01-22 14:10:00,33.1,13.6,30.08,WSW,239,8.0,12.0,44,0.00,,---,0.00,457.00,VWS V14.01,2013-01-22 20:10:00,
2013-01-22 14:14:00,33.1,13.6,30.08,SW,215,0.0,10.0,44,0.00,,---,0.00,450.00,VWS V14.01,2013-01-22 20:14:00,
2013-01-22 14:15:00,33.1,13.6,30.08,SSW,209,0.0,10.0,44,0.00,,---,0.00,450.00,VWS V14.01,2013-01-22 20:15:00,
2013-01-22 14:19:00,33.4,13.9,30.08,SSW,196,8.0,10.0,44,0.00,,---,0.00,443.00,VWS V14.01,2013-01-22 20:19:00,
2013-01-22 14:20:00,33.4,13.9,30.08,SSW,195,8.0,10.0,44,0.00,,---,0.00,443.00,VWS V14.01,2013-01-22 20:20:00,
2013-01-22 14:24:00,33.5,13.9,30.08,SSW,200,0.0,8.0,44,0.00,,---,0.00,436.00,VWS V14.01,2013-01-22 20:24:00,
2013-01-22 14:25:00,33.5,13.9,30.08,SSW,200,0.0,8.0,44,0.00,,---,0.00,436.00,VWS V14.01,2013-01-22 20:25:00,
2013-01-22 14:29:00,33.8,14.2,30.08,SE,137,3.0,6.0,44,0.00,,---,0.00,426.00,VWS V14.01,2013-01-22 20:29:00,
2013-01-22 14:30:00,33.8,14.2,30.08,SE,137,3.0,6.0,44,0.00,,---,0.00,426.00,VWS V14.01,2013-01-22 20:30:00,
2013-01-22 14:34:00,34.1,14.0,30.08,South,182,3.0,8.0,43,0.00,,---,0.00,419.00,VWS V14.01,2013-01-22 20:34:00,
2013-01-22 14:35:00,34.1,14.0,30.08,South,182,3.0,8.0,43,0.00,,---,0.00,419.00,VWS V14.01,2013-01-22 20:35:00,
2013-01-22 14:39:00,34.1,14.0,30.08,WNW,295,5.0,7.0,43,0.00,,---,0.00,419.00,VWS V14.01,2013-01-22 20:39:00,
2013-01-22 14:40:00,34.1,14.0,30.08,WNW,295,5.0,7.0,43,0.00,,---,0.00,419.00,VWS V14.01,2013-01-22 20:40:00,
2013-01-22 14:44:00,34.4,14.8,30.08,SW,216,3.0,7.0,44,0.00,,---,0.00,415.00,VWS V14.01,2013-01-22 20:44:00,
2013-01-22 14:45:00,34.4,14.8,30.08,SW,216,3.0,7.0,44,0.00,,---,0.00,415.00,VWS V14.01,2013-01-22 20:45:00,
2013-01-22 14:49:00,34.7,14.5,30.08,SW,223,1.0,3.0,43,0.00,,---,0.00,403.00,VWS V14.01,2013-01-22 20:49:00,
2013-01-22 14:50:00,34.7,14.5,30.08,SW,220,3.0,5.0,43,0.00,,---,0.00,403.00,VWS V14.01,2013-01-22 20:50:00,
2013-01-22 14:54:00,35.0,14.8,30.08,SW,236,3.0,3.0,43,0.00,,---,0.00,394.00,VWS V14.01,2013-01-22 20:54:00,
2013-01-22 14:55:00,35.0,14.8,30.08,SW,219,0.0,3.0,43,0.00,,---,0.00,394.00,VWS V14.01,2013-01-22 20:55:00,
2013-01-22 14:59:00,35.6,14.8,30.07,SW,216,7.0,10.0,42,0.00,,---,0.00,387.00,VWS V14.01,2013-01-22 20:59:00,
2013-01-22 15:00:00,35.5,14.7,30.07,WNW,292,8.0,10.0,42,0.00,,---,0.00,387.00,VWS V14.01,2013-01-22 21:00:00,
2013-01-22 15:04:00,35.6,14.8,30.07,SW,223,5.0,6.0,42,0.00,,---,0.00,378.00,VWS V14.01,2013-01-22 21:04:00,
2013-01-22 15:05:00,35.6,14.8,30.07,SSW,208,6.0,10.0,42,0.00,,---,0.00,378.00,VWS V14.01,2013-01-22 21:05:00,
2013-01-22 15:10:00,35.5,14.7,30.07,SSW,206,0.0,2.0,42,0.00,,---,0.00,348.00,VWS V14.01,2013-01-22 21:10:00,
2013-01-22 15:15:00,35.8,14.4,30.06,SSE,160,0.0,1.0,41,0.00,,---,0.00,329.00,VWS V14.01,2013-01-22 21:15:00,
2013-01-22 15:20:00,36.0,14.6,30.06,SSE,161,2.0,3.0,41,0.00,,---,0.00,336.00,VWS V14.01,2013-01-22 21:20:00,
2013-01-22 15:25:00,36.0,14.6,30.06,SSE,150,0.0,1.0,41,0.00,,---,0.00,324.00,VWS V14.01,2013-01-22 21:25:00,
2013-01-22 15:30:00,36.0,15.1,30.06,SE,134,5.0,6.0,42,0.00,,---,0.00,266.00,VWS V14.01,2013-01-22 21:30:00,
2013-01-22 15:31:00,36.0,15.1,30.06,SE,131,5.0,6.0,42,0.00,,---,0.00,246.00,VWS V14.01,2013-01-22 21:31:00,
2013-01-22 15:35:00,36.0,15.1,30.06,SE,130,0.0,6.0,42,0.00,,---,0.00,289.00,VWS V14.01,2013-01-22 21:35:00,
2013-01-22 15:36:00,36.2,15.3,30.06,WSW,243,1.0,2.0,42,0.00,,---,0.00,289.00,VWS V14.01,2013-01-22 21:36:00,
2013-01-22 15:40:00,36.3,14.9,30.06,SSE,151,0.0,2.0,41,0.00,,---,0.00,289.00,VWS V14.01,2013-01-22 21:40:00,
2013-01-22 15:42:00,36.6,15.1,30.06,SSE,151,2.0,3.0,41,0.00,,---,0.00,283.00,VWS V14.01,2013-01-22 21:42:00,
2013-01-22 15:45:00,36.5,15.1,30.06,SE,131,0.0,3.0,41,0.00,,---,0.00,262.00,VWS V14.01,2013-01-22 21:45:00,
2013-01-22 15:47:00,36.5,15.6,30.06,ESE,121,1.0,4.0,42,0.00,,---,0.00,271.00,VWS V14.01,2013-01-22 21:47:00,
2013-01-22 15:50:00,36.3,14.9,30.06,ESE,116,5.0,6.0,41,0.00,,---,0.00,266.00,VWS V14.01,2013-01-22 21:50:00,
2013-01-22 15:52:00,36.2,15.3,30.06,SE,143,3.0,5.0,42,0.00,,---,0.00,260.00,VWS V14.01,2013-01-22 21:52:00,
2013-01-22 15:55:00,36.2,15.3,30.06,SSE,150,0.0,5.0,42,0.00,,---,0.00,255.00,VWS V14.01,2013-01-22 21:55:00,
2013-01-22 15:57:00,36.3,15.4,30.06,SE,143,0.0,3.0,42,0.00,,---,0.00,238.00,VWS V14.01,2013-01-22 21:57:00,
2013-01-22 16:00:00,36.5,15.6,30.06,South,174,0.0,3.0,42,0.00,,---,0.00,232.00,VWS V14.01,2013-01-22 22:00:00,
2013-01-22 16:02:00,36.5,15.6,30.06,SSE,150,2.0,3.0,42,0.00,,---,0.00,223.00,VWS V14.01,2013-01-22 22:02:00,
2013-01-22 16:05:00,36.5,15.1,30.06,SW,234,0.0,3.0,41,0.00,,---,0.00,218.00,VWS V14.01,2013-01-22 22:05:00,
2013-01-22 16:07:00,36.5,15.1,30.06,SE,141,0.0,3.0,41,0.00,,---,0.00,206.00,VWS V14.01,2013-01-22 22:07:00,
2013-01-22 16:10:00,36.5,15.1,30.06,SE,130,0.0,3.0,41,0.00,,---,0.00,202.00,VWS V14.01,2013-01-22 22:10:00,
2013-01-22 16:12:00,36.6,15.1,30.06,SE,127,0.0,0.0,41,0.00,,---,0.00,197.00,VWS V14.01,2013-01-22 22:12:00,
2013-01-22 16:15:00,36.8,15.3,30.06,SE,126,0.0,0.0,41,0.00,,---,0.00,188.00,VWS V14.01,2013-01-22 22:15:00,
2013-01-22 16:17:00,37.0,15.5,30.06,SW,234,0.0,0.0,41,0.00,,---,0.00,179.00,VWS V14.01,2013-01-22 22:17:00,
2013-01-22 16:20:00,37.2,15.7,30.06,SSE,165,0.0,0.0,41,0.00,,---,0.00,176.00,VWS V14.01,2013-01-22 22:20:00,
2013-01-22 16:23:00,37.3,15.2,30.06,ESE,120,0.0,3.0,40,0.00,,---,0.00,162.00,VWS V14.01,2013-01-22 22:23:00,
2013-01-22 16:25:00,37.3,15.8,30.06,ESE,121,0.0,3.0,41,0.00,,---,0.00,158.00,VWS V14.01,2013-01-22 22:25:00,
2013-01-22 16:28:00,37.5,16.0,30.06,SE,144,0.0,0.0,41,0.00,,---,0.00,155.00,VWS V14.01,2013-01-22 22:28:00,
2013-01-22 16:30:00,37.3,15.2,30.08,South,169,0.0,0.0,40,0.00,,---,0.00,151.00,VWS V14.01,2013-01-22 22:30:00,
2013-01-22 16:33:00,37.2,15.7,30.08,ESE,123,0.0,0.0,41,0.00,,---,0.00,135.00,VWS V14.01,2013-01-22 22:33:00,
2013-01-22 16:35:00,37.3,15.8,30.08,ESE,120,0.0,0.0,41,0.00,,---,0.00,134.00,VWS V14.01,2013-01-22 22:35:00,
2013-01-22 16:40:00,37.3,15.8,30.08,ESE,112,0.0,2.0,41,0.00,,---,0.00,121.00,VWS V14.01,2013-01-22 22:40:00,
2013-01-22 16:45:00,36.5,15.6,30.08,SE,135,2.0,3.0,42,0.00,,---,0.00,109.00,VWS V14.01,2013-01-22 22:45:00,
2013-01-22 16:50:00,36.3,15.4,30.08,SE,135,0.0,1.0,42,0.00,,---,0.00,106.00,VWS V14.01,2013-01-22 22:50:00,
2013-01-22 16:55:00,36.2,15.3,30.08,SE,135,0.0,2.0,42,0.00,,---,0.00,98.00,VWS V14.01,2013-01-22 22:55:00,
2013-01-22 17:00:00,36.0,15.1,30.08,SE,135,0.0,0.0,42,0.00,,---,0.00,86.00,VWS V14.01,2013-01-22 23:00:00,
2013-01-22 17:05:00,36.0,15.1,30.08,ESE,112,0.0,2.0,42,0.00,,---,0.00,71.00,VWS V14.01,2013-01-22 23:05:00,
2013-01-22 17:10:00,35.9,15.6,30.08,SE,135,2.0,3.0,43,0.00,,---,0.00,56.00,VWS V14.01,2013-01-22 23:10:00,
2013-01-22 17:15:00,35.8,15.5,30.08,SE,135,0.0,0.0,43,0.00,,---,0.00,47.00,VWS V14.01,2013-01-22 23:15:00,
2013-01-22 17:20:00,35.8,15.5,30.08,SE,135,0.0,0.0,43,0.00,,---,0.00,37.00,VWS V14.01,2013-01-22 23:20:00,
2013-01-22 17:25:00,35.8,15.5,30.08,SE,135,0.0,0.0,43,0.00,,---,0.00,32.00,VWS V14.01,2013-01-22 23:25:00,
2013-01-22 17:30:00,35.6,15.3,30.07,SE,135,0.0,0.0,43,0.00,,---,0.00,19.00,VWS V14.01,2013-01-22 23:30:00,
2013-01-22 17:35:00,35.3,15.6,30.07,SE,135,0.0,0.0,44,0.00,,---,0.00,14.00,VWS V14.01,2013-01-22 23:35:00,
2013-01-22 17:40:00,35.2,15.5,30.07,SE,135,0.0,0.0,44,0.00,,---,0.00,4.00,VWS V14.01,2013-01-22 23:40:00,
2013-01-22 17:45:00,34.9,15.7,30.07,SE,135,0.0,0.0,45,0.00,,---,0.00,0.00,VWS V14.01,2013-01-22 23:45:00,
2013-01-22 17:50:00,34.6,15.5,30.07,SE,135,0.0,0.0,45,0.00,,---,0.00,0.00,VWS V14.01,2013-01-22 23:50:00,
2013-01-22 17:55:00,34.1,15.5,30.07,SE,135,0.0,0.0,46,0.00,,---,0.00,0.00,VWS V14.01,2013-01-22 23:55:00,
2013-01-22 18:00:00,33.8,15.2,30.07,SE,135,0.0,0.0,46,0.00,,---,0.00,0.00,VWS V14.01,2013-01-23 00:00:00,
2013-01-22 18:05:00,33.5,15.4,30.07,SE,135,0.0,3.0,47,0.00,,---,0.00,0.00,VWS V14.01,2013-01-23 00:05:00,
2013-01-22 18:10:00,33.1,15.1,30.07,ESE,112,0.0,2.0,47,0.00,,---,0.00,0.00,VWS V14.01,2013-01-23 00:10:00,
2013-01-22 18:15:00,32.8,14.8,30.09,ESE,112,1.0,2.0,47,0.00,,---,0.00,0.00,VWS V14.01,2013-01-23 00:15:00,
2013-01-22 18:20:00,32.4,14.9,30.09,ESE,112,0.0,1.0,48,0.00,,---,0.00,0.00,VWS V14.01,2013-01-23 00:20:00,
2013-01-22 18:25:00,32.1,14.6,30.09,SSW,202,0.0,3.0,48,0.00,,---,0.00,0.00,VWS V14.01,2013-01-23 00:25:00,
2013-01-22 18:30:00,31.8,14.8,30.09,SE,135,3.0,5.0,49,0.00,,---,0.00,0.00,VWS V14.01,2013-01-23 00:30:00,
2013-01-22 18:35:00,31.3,14.4,30.09,ESE,112,4.0,6.0,49,0.00,,---,0.00,0.00,VWS V14.01,2013-01-23 00:35:00,
2013-01-22 18:40:00,31.0,14.6,30.09,ENE,68,4.0,5.0,50,0.00,,---,0.00,0.00,VWS V14.01,2013-01-23 00:40:00,
2013-01-22 18:45:00,30.9,14.9,30.10,ENE,68,3.0,5.0,51,0.00,,---,0.00,0.00,VWS V14.01,2013-01-23 00:45:00,
2013-01-22 18:50:00,30.7,14.7,30.10,South,180,4.0,5.0,51,0.00,,---,0.00,0.00,VWS V14.01,2013-01-23 00:50:00,
2013-01-22 18:55:00,30.3,14.8,30.10,ENE,68,4.0,6.0,52,0.00,,---,0.00,0.00,VWS V14.01,2013-01-23 00:55:00,
2013-01-22 19:00:00,29.8,14.3,30.09,ENE,68,5.0,6.0,52,0.00,,---,0.00,0.00,VWS V14.01,2013-01-23 01:00:00,
2013-01-22 19:05:00,29.5,14.5,30.09,East,90,6.0,6.0,53,0.00,,---,0.00,0.00,VWS V14.01,2013-01-23 01:05:00,
2013-01-22 19:10:00,29.5,14.5,30.09,ENE,68,5.0,6.0,53,0.00,,---,0.00,0.00,VWS V14.01,2013-01-23 01:10:00,
2013-01-22 19:15:00,29.5,14.5,30.09,East,90,3.0,6.0,53,0.00,,---,0.00,0.00,VWS V14.01,2013-01-23 01:15:00,
2013-01-22 19:20:00,29.5,14.5,30.09,SE,135,3.0,5.0,53,0.00,,---,0.00,0.00,VWS V14.01,2013-01-23 01:20:00,
2013-01-22 19:25:00,29.7,14.7,30.09,SE,135,3.0,5.0,53,0.00,,---,0.00,0.00,VWS V14.01,2013-01-23 01:25:00,
2013-01-22 19:30:00,29.5,14.5,30.10,South,180,4.0,5.0,53,0.00,,---,0.00,0.00,VWS V14.01,2013-01-23 01:30:00,
2013-01-22 19:35:00,29.4,14.4,30.10,East,90,4.0,6.0,53,0.00,,---,0.00,0.00,VWS V14.01,2013-01-23 01:35:00,
2013-01-22 19:40:00,29.1,14.1,30.10,NE,45,5.0,6.0,53,0.00,,---,0.00,0.00,VWS V14.01,2013-01-23 01:40:00,
2013-01-22 19:45:00,28.7,13.8,30.10,East,90,5.0,5.0,53,0.00,,---,0.00,0.00,VWS V14.01,2013-01-23 01:45:00,
2013-01-22 19:50:00,28.2,14.1,30.10,East,90,5.0,6.0,55,0.00,,---,0.00,0.00,VWS V14.01,2013-01-23 01:50:00,
2013-01-22 19:55:00,27.9,13.8,30.10,SSE,158,5.0,6.0,55,0.00,,---,0.00,0.00,VWS V14.01,2013-01-23 01:55:00,
2013-01-22 20:00:00,28.1,14.4,30.11,NE,45,5.0,6.0,56,0.00,,---,0.00,0.00,VWS V14.01,2013-01-23 02:00:00,
2013-01-22 20:05:00,28.2,14.1,30.11,East,90,5.0,7.0,55,0.00,,---,0.00,0.00,VWS V14.01,2013-01-23 02:05:00,
2013-01-22 20:10:00,28.1,14.4,30.11,East,90,4.0,6.0,56,0.00,,---,0.00,0.00,VWS V14.01,2013-01-23 02:10:00,
2013-01-22 20:15:00,28.1,14.0,30.11,East,90,5.0,7.0,55,0.00,,---,0.00,0.00,VWS V14.01,2013-01-23 02:15:00,
2013-01-22 20:20:00,27.9,14.2,30.11,NE,45,6.0,7.0,56,0.00,,---,0.00,0.00,VWS V14.01,2013-01-23 02:20:00,
2013-01-22 20:25:00,27.9,14.2,30.11,SW,225,5.0,7.0,56,0.00,,---,0.00,0.00,VWS V14.01,2013-01-23 02:25:00,
2013-01-22 20:30:00,27.8,14.2,30.11,South,180,5.0,6.0,56,0.00,,---,0.00,0.00,VWS V14.01,2013-01-23 02:30:00,
2013-01-22 20:35:00,27.8,14.2,30.11,SSW,202,5.0,6.0,56,0.00,,---,0.00,0.00,VWS V14.01,2013-01-23 02:35:00,
2013-01-22 20:40:00,27.5,13.9,30.11,NE,45,6.0,7.0,56,0.00,,---,0.00,0.00,VWS V14.01,2013-01-23 02:40:00,
2013-01-22 20:45:00,27.3,14.1,30.11,NE,45,6.0,7.0,57,0.00,,---,0.00,0.00,VWS V14.01,2013-01-23 02:45:00,
2013-01-22 20:50:00,27.3,14.1,30.11,NE,45,6.0,8.0,57,0.00,,---,0.00,0.00,VWS V14.01,2013-01-23 02:50:00,
2013-01-22 20:55:00,27.0,14.2,30.11,NE,45,5.0,7.0,58,0.00,,---,0.00,0.00,VWS V14.01,2013-01-23 02:55:00,
2013-01-22 21:00:00,26.7,13.9,30.11,NE,45,5.0,6.0,58,0.00,,---,0.00,0.00,VWS V14.01,2013-01-23 03:00:00,
2013-01-22 21:05:00,26.6,14.2,30.11,ENE,68,6.0,7.0,59,0.00,,---,0.00,0.00,VWS V14.01,2013-01-23 03:05:00,
2013-01-22 21:10:00,26.4,14.0,30.11,ENE,68,6.0,7.0,59,0.00,,---,0.00,0.00,VWS V14.01,2013-01-23 03:10:00,
2013-01-22 21:15:00,26.4,14.0,30.11,ESE,112,5.0,7.0,59,0.00,,---,0.00,0.00,VWS V14.01,2013-01-23 03:15:00,
2013-01-22 21:20:00,26.4,14.0,30.11,SE,135,5.0,6.0,59,0.00,,---,0.00,0.00,VWS V14.01,2013-01-23 03:20:00,
2013-01-22 21:25:00,26.6,13.8,30.11,NE,45,5.0,6.0,58,0.00,,---,0.00,0.00,VWS V14.01,2013-01-23 03:25:00,
2013-01-22 21:30:00,26.7,13.9,30.10,NE,45,4.0,6.0,58,0.00,,---,0.00,0.00,VWS V14.01,2013-01-23 03:30:00,
2013-01-22 21:35:00,26.9,14.1,30.10,NE,45,4.0,5.0,58,0.00,,---,0.00,0.00,VWS V14.01,2013-01-23 03:35:00,
2013-01-22 21:40:00,27.0,14.2,30.10,NE,45,3.0,5.0,58,0.00,,---,0.00,0.00,VWS V14.01,2013-01-23 03:40:00,
2013-01-22 21:45:00,27.0,14.2,30.12,NE,45,5.0,6.0,58,0.00,,---,0.00,0.00,VWS V14.01,2013-01-23 03:45:00,
2013-01-22 21:50:00,26.9,14.1,30.12,NE,45,5.0,6.0,58,0.00,,---,0.00,0.00,VWS V14.01,2013-01-23 03:50:00,
2013-01-22 21:55:00,26.6,13.8,30.12,NE,45,5.0,6.0,58,0.00,,---,0.00,0.00,VWS V14.01,2013-01-23 03:55:00,
2013-01-22 22:00:00,26.6,13.8,30.12,NE,45,4.0,5.0,58,0.00,,---,0.00,0.00,VWS V14.01,2013-01-23 04:00:00,
2013-01-22 22:05:00,26.4,14.0,30.12,NE,45,3.0,5.0,59,0.00,,---,0.00,0.00,VWS V14.01,2013-01-23 04:05:00,
2013-01-22 22:10:00,26.3,13.9,30.12,NE,45,3.0,3.0,59,0.00,,---,0.00,0.00,VWS V14.01,2013-01-23 04:10:00,
2013-01-22 22:15:00,26.1,13.8,30.11,NE,45,3.0,5.0,59,0.00,,---,0.00,0.00,VWS V14.01,2013-01-23 04:15:00,
2013-01-22 22:20:00,26.0,13.6,30.11,NE,45,2.0,3.0,59,0.00,,---,0.00,0.00,VWS V14.01,2013-01-23 04:20:00,
2013-01-22 22:25:00,25.7,13.8,30.11,NE,45,3.0,5.0,60,0.00,,---,0.00,0.00,VWS V14.01,2013-01-23 04:25:00,
2013-01-22 22:30:00,25.7,13.8,30.12,NE,45,3.0,3.0,60,0.00,,---,0.00,0.00,VWS V14.01,2013-01-23 04:30:00,
2013-01-22 22:35:00,25.6,13.7,30.12,NE,45,3.0,3.0,60,0.00,,---,0.00,0.00,VWS V14.01,2013-01-23 04:35:00,
2013-01-22 22:40:00,25.4,13.8,30.12,NE,45,2.0,2.0,61,0.00,,---,0.00,0.00,VWS V14.01,2013-01-23 04:40:00,
2013-01-22 22:45:00,25.3,13.8,30.12,NE,45,2.0,3.0,61,0.00,,---,0.00,0.00,VWS V14.01,2013-01-23 04:45:00,
2013-01-22 22:50:00,25.1,13.9,30.12,NE,45,3.0,3.0,62,0.00,,---,0.00,0.00,VWS V14.01,2013-01-23 04:50:00,
2013-01-22 22:55:00,25.0,13.8,30.12,NE,45,2.0,3.0,62,0.00,,---,0.00,0.00,VWS V14.01,2013-01-23 04:55:00,
2013-01-22 23:00:00,25.0,13.8,30.12,NE,45,2.0,3.0,62,0.00,,---,0.00,0.00,VWS V14.01,2013-01-23 05:00:00,
2013-01-22 23:05:00,24.8,13.6,30.12,NE,45,3.0,5.0,62,0.00,,---,0.00,0.00,VWS V14.01,2013-01-23 05:05:00,
2013-01-22 23:10:00,24.7,13.6,30.12,ENE,68,5.0,6.0,62,0.00,,---,0.00,0.00,VWS V14.01,2013-01-23 05:10:00,
2013-01-22 23:15:00,24.4,13.3,30.10,ESE,112,3.0,6.0,62,0.00,,---,0.00,0.00,VWS V14.01,2013-01-23 05:15:00,
2013-01-22 23:20:00,24.4,13.6,30.10,ESE,112,2.0,5.0,63,0.00,,---,0.00,0.00,VWS V14.01,2013-01-23 05:20:00,
2013-01-22 23:25:00,24.7,13.9,30.10,SE,135,2.0,4.0,63,0.00,,---,0.00,0.00,VWS V14.01,2013-01-23 05:25:00,
2013-01-22 23:30:00,24.5,13.4,30.09,SSE,158,3.0,6.0,62,0.00,,---,0.00,0.00,VWS V14.01,2013-01-23 05:30:00,
2013-01-22 23:35:00,24.1,13.3,30.09,SSE,158,3.0,6.0,63,0.00,,---,0.00,0.00,VWS V14.01,2013-01-23 05:35:00,
2013-01-22 23:40:00,23.5,13.1,30.09,SSE,158,2.0,5.0,64,0.00,,---,0.00,0.00,VWS V14.01,2013-01-23 05:40:00,
2013-01-22 23:45:00,23.2,13.2,30.10,SSE,158,3.0,6.0,65,0.00,,---,0.00,0.00,VWS V14.01,2013-01-23 05:45:00,
2013-01-22 23:50:00,23.0,13.0,30.10,SSE,158,3.0,5.0,65,0.00,,---,0.00,0.00,VWS V14.01,2013-01-23 05:50:00,
2013-01-22 23:55:00,23.0,13.4,30.10,SSE,158,4.0,6.0,66,0.00,,---,0.00,0.00,VWS V14.01,2013-01-23 05:55:00,